SL-16 DEB, 22415

Orbit data source: Space-Track

SL-16 DEB, 22415 is space debris in LEO originally from a launch on Fri, 25 Dec 1992 UTC launched from the Tyuratam Missile And Space Complex (TTMTR). Debris objects in space refer to the collection of defunct objects orbiting the Earth. Examples of debris include non-operational satellites, rocket bodies, and fragments generated from explosions, collisions, or faulty payload assembly.

Loading next visibility...
Identifier
22415, 1992-093DG
Orbit
LEO
Country
Flag of CISCIS
Related business
Manufacturer
Unknown
Mission
Spacecraft
Bus & Motor
Unknown
Mass
Unknown
Launch date (UTC)
1992-12-25 (33 years ago)
Launch vehicle
Unknown
Launch site
Tyuratam Missile And Space Complex (TTMTR)
Object type
Payload
Rocket body
Debris
Shape & HBR
Unknown shape, 0.1 m
Radar Cross Section
Small (<0.1 m²)

Expand to show TLE details & history
Last TLE update: 13 hours ago

TLE from 13 hours ago
0 SL-16 DEB
1 22415U 92093DG  25297.91052043  .00001326  00000-0  78394-3 0  9992
2 22415  71.1149 253.1040 0123753 308.1513  50.8504 14.05775803675949
Epoch: 2025-10-24T21:51Z
TLE epoch observation values (Epoch: 2025-10-24T21:51:08.965Z)
Latitude
0.00001°
Longitude
-108.23199°
Altitude
820.268 km
Speed
7.472 km/s
True Right ascension
16h 52m 24s
True Declination
0° 00' 00"
Sunlit
Object was in daylight at epoch
Visualization orbit readout
Latitude
Unknown
Longitude
Unknown
Altitude
Unknown
Speed
Unknown
Apparent Right ascension
Unknown
Apparent Declination
Unknown
Sunlit
N/A
Visualization observer readout
Local Sidereal Time
05:57:29
Azimuth
Unknown
Elevation
Unknown
Doppler factor
Unknown
Orbital elements
Apogee altitude
961.505 km
Perigee altitude
782.065 km
Semi-major axis
7,249.922 km
Eccentricity
0.01238
Inclination
71.1149°
RAAN
253.104°
Arg. of periapsis
308.1513°
True anomaly
51.96091°
Mean anomaly
50.8504°
Eccentric anomaly
51.40457°
Mean motion
3.51595 °/min
Orbital period
102.39 mins
BSTAR
0.00078394
Loading maneuver chart data...
Computing Atmospheric mass density...

Documentation

Showing up to 5 results
|